Tracking 28790 objects as of 19-Apr-2024
HD Live streaming from Space Station
objects crossing your sky now

NOAA 16 DEB

Track NOAA 16 DEB now!
10-day predictions


NORAD ID: 41156
Int'l Code: 2000-055CP
Perigee: 717.2 km
Apogee: 788.6 km
Inclination: 99.0 °
Period: 99.7 minutes
Semi major axis: 7123 km
RCS: Unknown
Launch date: September 21, 2000
Source: United States (US)
Launch site: AIR FORCE WESTERN TEST RANGE (AFWTR)

Note: This is SATELLITE DEBRIS
Your satellite tracking list
Your tracking list is empty




NASA's NSSDC Master Catalog

Two Line Element Set (TLE):
1 41156U 00055CP  24107.34505312  .00022562  00000-0  65115-2 0  9991
2 41156  98.9803 296.2572 0050086 217.4653 142.3041 14.43870916436928
Source of the keplerian elements: AFSPC